Time,TemperatureF,DewpointF,PressureIn,WindDirection,WindDirectionDegrees,WindSpeedMPH,WindSpeedGustMPH,Humidity,HourlyPrecipIn,Conditions,Clouds,dailyrainin,SoftwareType,DateUTC
2013-09-17 00:03:00,72.6,69.0,30.12,South,177,12.0,26.0,88,0.00,,,0.60,weatherlink.com 1.10,2013-09-17 04:03:00,
2013-09-17 00:18:00,72.6,69.0,30.13,SSW,207,14.0,25.0,87,0.00,,,0.60,weatherlink.com 1.10,2013-09-17 04:18:00,
2013-09-17 00:33:00,72.6,69.0,30.13,SW,233,20.0,24.0,88,0.00,,,0.00,weatherlink.com 1.10,2013-09-17 04:33:00,
2013-09-17 00:48:00,72.3,68.0,30.13,SSW,211,21.0,23.0,86,0.00,,,0.00,weatherlink.com 1.10,2013-09-17 04:48:00,
2013-09-17 01:03:00,72.2,69.0,30.13,SSW,208,19.0,24.0,88,0.00,,,0.00,weatherlink.com 1.10,2013-09-17 05:03:00,
2013-09-17 01:18:00,71.8,68.0,30.13,WSW,238,20.0,25.0,88,0.00,,,0.00,weatherlink.com 1.10,2013-09-17 05:18:00,
2013-09-17 01:33:00,71.9,68.0,30.13,SSW,209,16.0,24.0,86,0.00,,,0.00,weatherlink.com 1.10,2013-09-17 05:33:00,
2013-09-17 01:48:00,71.7,67.0,30.13,WSW,243,14.0,26.0,85,0.00,,,0.00,weatherlink.com 1.10,2013-09-17 05:48:00,
2013-09-17 02:03:00,71.8,67.0,30.13,SW,221,17.0,25.0,84,0.00,,,0.00,weatherlink.com 1.10,2013-09-17 06:03:00,
2013-09-17 02:19:00,71.8,66.0,30.13,SW,219,14.0,25.0,82,0.00,,,0.00,weatherlink.com 1.10,2013-09-17 06:19:00,
2013-09-17 02:34:00,71.8,65.0,30.13,WSW,246,14.0,26.0,80,0.00,,,0.00,weatherlink.com 1.10,2013-09-17 06:34:00,
2013-09-17 02:49:00,71.7,65.0,30.13,SSW,200,14.0,24.0,78,0.00,,,0.00,weatherlink.com 1.10,2013-09-17 06:49:00,
2013-09-17 03:04:00,71.5,65.0,30.13,SW,223,16.0,24.0,80,0.00,,,0.00,weatherlink.com 1.10,2013-09-17 07:04:00,
2013-09-17 03:19:00,71.2,64.0,30.13,SW,215,11.0,23.0,79,0.00,,,0.00,weatherlink.com 1.10,2013-09-17 07:19:00,
2013-09-17 03:34:00,71.3,65.0,30.14,SSW,205,19.0,25.0,79,0.00,,,0.00,weatherlink.com 1.10,2013-09-17 07:34:00,
2013-09-17 03:49:00,71.2,64.0,30.14,SW,231,21.0,26.0,78,0.00,,,0.00,weatherlink.com 1.10,2013-09-17 07:49:00,
2013-09-17 04:04:00,71.0,62.0,30.14,SSW,210,21.0,30.0,74,0.00,,,0.00,weatherlink.com 1.10,2013-09-17 08:04:00,
2013-09-17 04:19:00,70.9,63.0,30.14,SW,217,19.0,28.0,76,0.00,,,0.00,weatherlink.com 1.10,2013-09-17 08:19:00,
2013-09-17 04:34:00,70.7,62.0,30.14,SSW,205,16.0,29.0,74,0.00,,,0.00,weatherlink.com 1.10,2013-09-17 08:34:00,
2013-09-17 04:49:00,70.7,62.0,30.14,SSW,193,16.0,27.0,74,0.00,,,0.00,weatherlink.com 1.10,2013-09-17 08:49:00,
2013-09-17 05:04:00,70.8,63.0,30.14,SSW,205,18.0,29.0,75,0.00,,,0.00,weatherlink.com 1.10,2013-09-17 09:04:00,
2013-09-17 05:19:00,70.6,62.0,30.15,SSW,212,13.0,28.0,73,0.00,,,0.00,weatherlink.com 1.10,2013-09-17 09:19:00,
2013-09-17 05:34:00,70.5,61.0,30.15,SW,230,16.0,23.0,72,0.00,,,0.00,weatherlink.com 1.10,2013-09-17 09:34:00,
2013-09-17 05:49:00,70.7,62.0,30.15,SSE,159,15.0,27.0,75,0.00,,,0.00,weatherlink.com 1.10,2013-09-17 09:49:00,
2013-09-17 06:04:00,70.7,62.0,30.15,SW,230,20.0,27.0,74,0.00,,,0.00,weatherlink.com 1.10,2013-09-17 10:04:00,
2013-09-17 06:19:00,70.6,62.0,30.16,SW,214,13.0,27.0,73,0.00,,,0.00,weatherlink.com 1.10,2013-09-17 10:19:00,
2013-09-17 06:34:00,70.5,61.0,30.17,SW,217,12.0,22.0,72,0.00,,,0.00,weatherlink.com 1.10,2013-09-17 10:34:00,
2013-09-17 06:49:00,70.6,61.0,30.18,SW,236,15.0,24.0,71,0.00,,,0.00,weatherlink.com 1.10,2013-09-17 10:49:00,
2013-09-17 07:04:00,70.4,60.0,30.18,SSW,205,10.0,18.0,70,0.00,,,0.00,weatherlink.com 1.10,2013-09-17 11:04:00,
2013-09-17 07:19:00,70.6,60.0,30.19,SW,227,12.0,20.0,70,0.00,,,0.00,weatherlink.com 1.10,2013-09-17 11:19:00,
2013-09-17 07:34:00,71.1,60.0,30.19,SW,228,8.0,20.0,68,0.00,,,0.00,weatherlink.com 1.10,2013-09-17 11:34:00,
2013-09-17 07:49:00,71.2,60.0,30.20,SW,235,12.0,19.0,68,0.00,,,0.00,weatherlink.com 1.10,2013-09-17 11:49:00,
2013-09-17 08:04:00,71.2,61.0,30.20,SW,224,13.0,17.0,70,0.00,,,0.00,weatherlink.com 1.10,2013-09-17 12:04:00,
2013-09-17 08:19:00,72.0,60.0,30.20,SW,220,15.0,21.0,67,0.00,,,0.00,weatherlink.com 1.10,2013-09-17 12:19:00,
2013-09-17 08:34:00,72.4,60.0,30.21,WSW,239,15.0,19.0,66,0.00,,,0.00,weatherlink.com 1.10,2013-09-17 12:34:00,
2013-09-17 08:49:00,72.9,61.0,30.21,SSW,200,8.0,19.0,67,0.00,,,0.00,weatherlink.com 1.10,2013-09-17 12:49:00,
2013-09-17 09:04:00,72.4,60.0,30.22,SW,217,6.0,20.0,65,0.00,,,0.00,weatherlink.com 1.10,2013-09-17 13:04:00,
2013-09-17 09:19:00,73.2,59.0,30.23,SW,224,7.0,19.0,62,0.00,,,0.00,weatherlink.com 1.10,2013-09-17 13:19:00,
2013-09-17 09:35:00,73.3,59.0,30.23,SW,226,18.0,20.0,62,0.00,,,0.00,weatherlink.com 1.10,2013-09-17 13:35:00,
2013-09-17 09:50:00,73.4,60.0,30.23,SW,224,9.0,21.0,63,0.00,,,0.00,weatherlink.com 1.10,2013-09-17 13:50:00,
2013-09-17 10:20:00,73.6,61.0,30.25,SW,215,6.0,21.0,65,0.00,,,0.00,weatherlink.com 1.10,2013-09-17 14:20:00,
2013-09-17 10:35:00,73.9,59.0,30.25,WSW,240,14.0,22.0,61,0.00,,,0.00,weatherlink.com 1.10,2013-09-17 14:35:00,
2013-09-17 10:50:00,74.5,60.0,30.25,West,266,13.0,20.0,61,0.00,,,0.00,weatherlink.com 1.10,2013-09-17 14:50:00,
2013-09-17 11:05:00,74.2,60.0,30.26,South,185,11.0,20.0,62,0.00,,,0.00,weatherlink.com 1.10,2013-09-17 15:05:00,
2013-09-17 11:20:00,74.8,61.0,30.26,SW,217,9.0,23.0,63,0.00,,,0.00,weatherlink.com 1.10,2013-09-17 15:20:00,
2013-09-17 11:35:00,74.6,60.0,30.26,WSW,244,8.0,21.0,61,0.00,,,0.00,weatherlink.com 1.10,2013-09-17 15:35:00,
2013-09-17 11:50:00,74.7,61.0,30.26,SW,222,14.0,25.0,63,0.00,,,0.00,weatherlink.com 1.10,2013-09-17 15:50:00,
2013-09-17 12:05:00,74.5,60.0,30.25,SW,231,14.0,25.0,61,0.00,,,0.00,weatherlink.com 1.10,2013-09-17 16:05:00,
2013-09-17 12:20:00,74.6,62.0,30.25,SW,224,12.0,25.0,64,0.00,,,0.00,weatherlink.com 1.10,2013-09-17 16:20:00,
2013-09-17 12:35:00,74.7,63.0,30.25,SSW,207,18.0,26.0,66,0.00,,,0.00,weatherlink.com 1.10,2013-09-17 16:35:00,
2013-09-17 12:50:00,74.8,61.0,30.25,South,183,16.0,25.0,63,0.00,,,0.00,weatherlink.com 1.10,2013-09-17 16:50:00,
2013-09-17 13:05:00,73.0,65.0,30.25,SSW,205,21.0,32.0,76,0.00,,,0.00,weatherlink.com 1.10,2013-09-17 17:05:00,
2013-09-17 13:20:00,72.7,63.0,30.25,WSW,250,23.0,31.0,72,0.00,,,0.00,weatherlink.com 1.10,2013-09-17 17:20:00,
2013-09-17 13:35:00,72.2,62.0,30.25,SW,214,19.0,29.0,70,0.00,,,0.00,weatherlink.com 1.10,2013-09-17 17:35:00,
2013-09-17 13:50:00,72.4,63.0,30.25,SW,219,22.0,27.0,72,0.00,,,0.00,weatherlink.com 1.10,2013-09-17 17:50:00,
2013-09-17 14:05:00,72.0,62.0,30.25,SSW,205,19.0,32.0,70,0.00,,,0.00,weatherlink.com 1.10,2013-09-17 18:05:00,
2013-09-17 14:20:00,72.6,62.0,30.24,SW,214,23.0,29.0,69,0.00,,,0.00,weatherlink.com 1.10,2013-09-17 18:20:00,
2013-09-17 14:35:00,71.7,62.0,30.24,SW,228,16.0,33.0,72,0.00,,,0.00,weatherlink.com 1.10,2013-09-17 18:35:00,
2013-09-17 14:50:00,71.6,61.0,30.24,SW,236,26.0,32.0,69,0.00,,,0.00,weatherlink.com 1.10,2013-09-17 18:50:00,
2013-09-17 15:05:00,71.4,60.0,30.24,SSW,213,28.0,32.0,67,0.00,,,0.00,weatherlink.com 1.10,2013-09-17 19:05:00,
2013-09-17 15:20:00,71.2,59.0,30.24,SSW,209,21.0,28.0,66,0.00,,,0.00,weatherlink.com 1.10,2013-09-17 19:20:00,
2013-09-17 15:35:00,71.2,58.0,30.24,SW,219,22.0,31.0,64,0.00,,,0.00,weatherlink.com 1.10,2013-09-17 19:35:00,
2013-09-17 15:50:00,71.1,59.0,30.23,WSW,237,20.0,27.0,66,0.00,,,0.00,weatherlink.com 1.10,2013-09-17 19:50:00,
2013-09-17 16:05:00,70.6,58.0,30.23,SW,229,21.0,30.0,65,0.00,,,0.00,weatherlink.com 1.10,2013-09-17 20:05:00,
2013-09-17 16:20:00,70.3,58.0,30.23,SW,226,17.0,30.0,65,0.00,,,0.00,weatherlink.com 1.10,2013-09-17 20:20:00,
2013-09-17 16:35:00,70.3,55.0,30.23,SSW,213,20.0,30.0,59,0.00,,,0.00,weatherlink.com 1.10,2013-09-17 20:35:00,
2013-09-17 16:50:00,69.9,58.0,30.23,SW,214,14.0,30.0,65,0.00,,,0.00,weatherlink.com 1.10,2013-09-17 20:50:00,
2013-09-17 17:05:00,69.9,58.0,30.23,SW,229,14.0,28.0,65,0.00,,,0.00,weatherlink.com 1.10,2013-09-17 21:05:00,
2013-09-17 17:20:00,69.7,57.0,30.23,SSW,200,18.0,25.0,65,0.00,,,0.00,weatherlink.com 1.10,2013-09-17 21:20:00,
2013-09-17 17:35:00,69.2,57.0,30.23,SSW,200,13.0,31.0,66,0.00,,,0.00,weatherlink.com 1.10,2013-09-17 21:35:00,
2013-09-17 17:50:00,69.3,57.0,30.23,SW,220,13.0,27.0,64,0.00,,,0.00,weatherlink.com 1.10,2013-09-17 21:50:00,
2013-09-17 18:05:00,69.1,57.0,30.23,WSW,237,17.0,25.0,65,0.00,,,0.00,weatherlink.com 1.10,2013-09-17 22:05:00,
2013-09-17 18:20:00,68.7,55.0,30.23,SSW,209,18.0,25.0,63,0.00,,,0.00,weatherlink.com 1.10,2013-09-17 22:20:00,
2013-09-17 18:35:00,68.3,55.0,30.23,SSW,204,15.0,24.0,63,0.00,,,0.00,weatherlink.com 1.10,2013-09-17 22:35:00,
2013-09-17 18:50:00,67.7,55.0,30.24,SW,226,12.0,24.0,63,0.00,,,0.00,weatherlink.com 1.10,2013-09-17 22:50:00,
2013-09-17 19:06:00,67.5,55.0,30.24,SSW,209,6.0,21.0,64,0.00,,,0.00,weatherlink.com 1.10,2013-09-17 23:06:00,
2013-09-17 19:20:00,67.3,55.0,30.24,SSW,212,9.0,24.0,65,0.00,,,0.00,weatherlink.com 1.10,2013-09-17 23:20:00,
2013-09-17 19:35:00,67.2,56.0,30.24,SW,229,10.0,23.0,67,0.00,,,0.00,weatherlink.com 1.10,2013-09-17 23:35:00,
2013-09-17 19:50:00,67.0,56.0,30.24,SW,226,16.0,23.0,67,0.00,,,0.00,weatherlink.com 1.10,2013-09-17 23:50:00,
2013-09-17 20:05:00,67.1,56.0,30.25,WSW,251,15.0,22.0,67,0.00,,,0.00,weatherlink.com 1.10,2013-09-18 00:05:00,
2013-09-17 20:20:00,67.1,56.0,30.25,SSW,199,8.0,26.0,67,0.00,,,0.00,weatherlink.com 1.10,2013-09-18 00:20:00,
2013-09-17 20:35:00,67.1,54.0,30.25,SSW,202,8.0,23.0,64,0.00,,,0.00,weatherlink.com 1.10,2013-09-18 00:35:00,
2013-09-17 20:50:00,66.9,55.0,30.25,SW,233,8.0,22.0,66,0.00,,,0.00,weatherlink.com 1.10,2013-09-18 00:50:00,
2013-09-17 21:05:00,66.9,56.0,30.25,SW,214,7.0,20.0,68,0.00,,,0.00,weatherlink.com 1.10,2013-09-18 01:05:00,
2013-09-17 21:20:00,66.8,55.0,30.25,WSW,242,14.0,18.0,65,0.00,,,0.00,weatherlink.com 1.10,2013-09-18 01:20:00,
2013-09-17 21:36:00,66.8,55.0,30.26,SSW,200,8.0,24.0,66,0.00,,,0.00,weatherlink.com 1.10,2013-09-18 01:36:00,
2013-09-17 21:51:00,66.8,55.0,30.26,NW,307,6.0,19.0,65,0.00,,,0.00,weatherlink.com 1.10,2013-09-18 01:51:00,
2013-09-17 22:06:00,66.8,55.0,30.26,WSW,237,10.0,19.0,67,0.00,,,0.00,weatherlink.com 1.10,2013-09-18 02:06:00,
2013-09-17 22:21:00,66.8,55.0,30.26,South,175,13.0,18.0,66,0.00,,,0.00,weatherlink.com 1.10,2013-09-18 02:21:00,
2013-09-17 22:36:00,66.7,56.0,30.26,SW,233,12.0,21.0,68,0.00,,,0.00,weatherlink.com 1.10,2013-09-18 02:36:00,
2013-09-17 22:51:00,66.6,55.0,30.26,SW,227,6.0,16.0,67,0.00,,,0.00,weatherlink.com 1.10,2013-09-18 02:51:00,
2013-09-17 23:07:00,66.7,56.0,30.26,SSW,210,5.0,16.0,68,0.00,,,0.00,weatherlink.com 1.10,2013-09-18 03:07:00,
2013-09-17 23:21:00,66.9,56.0,30.26,SW,230,9.0,17.0,69,0.00,,,0.00,weatherlink.com 1.10,2013-09-18 03:21:00,
2013-09-17 23:36:00,67.1,56.0,30.25,SW,236,10.0,16.0,68,0.00,,,0.00,weatherlink.com 1.10,2013-09-18 03:36:00,
2013-09-17 23:51:00,67.2,56.0,30.25,SSW,212,7.0,17.0,68,0.00,,,0.00,weatherlink.com 1.10,2013-09-18 03:51:00,